Weather History for K0A9 - July, 2013

Change the Weather History Date:

Thursday, July 25, 2013

  Actual Average (KTRI) Record (KTRI)
Temperature  
Mean Temperature 70 °F 75 °F  
Max Temperature 80 °F 85 °F 97 °F (1987)
Min Temperature 60 °F 64 °F 56 °F (2003)
Degree Days  
Heating Degree Days 0 0  
Month to date heating degree days 0  
Since 1 June heating degree days 11  
Since 1 July heating degree days 0  
Cooling Degree Days 5 10  
Month to date cooling degree days 247  
Year to date cooling degree days 526  
Since 1 June cooling degree days 453  
Growing Degree Days 20 (Base 50)    
Moisture  
Dew Point 62 °F    
Average Humidity 81    
Maximum Humidity 100    
Minimum Humidity 47    
Precipitation  
Precipitation 0.00 in 0.15 in 1.79 in (2012)
Month to date precipitation 3.78  
Year to date precipitation 25.07  
Snow  
Snow 0.00 in 0.00 in - ()
Month to date snowfall 0.0  
Since 1 June snowfall 0.0  
Since 1 July snowfall 0.0  
Snow Depth -    
Sea Level Pressure  
Sea Level Pressure 30.01 in    
Wind  
Wind Speed 2 mph (WNW)    
Max Wind Speed 10 mph    
Max Gust Speed -    
Visibility 9 miles    
Events      
T = Trace of Precipitation, MM = Missing Value Source: NWS Daily Summary

Daily Weather History Graph

Daily Weather History Graph

Search for Another Location

Airport or City:

Trip Planner

Search our weather history database for the weather conditions in past years. The results will help you decide how hot, cold, wet, or windy it might be!

Date:

Astronomy

Jul. 25, 2013 Rise Set
Actual Time 6:29 AM EDT 8:40 PM EDT
Civil Twilight 6:01 AM EDT 9:08 PM EDT
Nautical Twilight 5:25 AM EDT 9:44 PM EDT
Astronomical Twilight 4:47 AM EDT 10:22 PM EDT
Moon 10:28 PM EDT (7/25) 9:50 AM EDT (7/25)
Length of Visible Light 15h 07m
Length of Day
14h 10m
Waning Gibbous, 88% of the Moon is Illuminated
Jul 25
Waning Gibbous
Jul 29
Last Quarter
Aug 6
New
Aug 14
First Quarter
Aug 20
Full

Hourly Weather History & Observations

Time (EDT) Temp. Heat Index Dew Point Humidity Pressure Visibility Wind Dir Wind Speed Gust Speed Precip Events Conditions
12:15 AM 66.2 °F - 66.2 °F 100% 29.94 in 7.0 mi Calm Calm - N/A   Clear
12:35 AM 66.2 °F - 64.4 °F 94% 29.95 in 7.0 mi North 3.5 mph - N/A   Mostly Cloudy
12:55 AM 66.2 °F - 66.2 °F 100% 29.96 in 9.0 mi Calm Calm - N/A   Mostly Cloudy
1:15 AM 66.2 °F - 64.4 °F 94% 29.96 in 8.0 mi Calm Calm - N/A   Mostly Cloudy
1:35 AM 66.2 °F - 66.2 °F 100% 29.96 in 9.0 mi Calm Calm - N/A   Overcast
1:55 AM 66.2 °F - 66.2 °F 100% 29.95 in 9.0 mi Calm Calm - N/A   Overcast
2:15 AM 66.2 °F - 64.4 °F 94% 29.95 in 10.0 mi Calm Calm - N/A   Scattered Clouds
2:35 AM 66.2 °F - 64.4 °F 94% 29.94 in 7.0 mi Calm Calm - N/A   Partly Cloudy
2:55 AM 64.4 °F - 64.4 °F 100% 29.95 in 7.0 mi Calm Calm - N/A   Partly Cloudy
3:15 AM 64.4 °F - 64.4 °F 100% 29.94 in 7.0 mi Calm Calm - N/A   Scattered Clouds
3:35 AM 64.4 °F - 64.4 °F 100% 29.94 in 7.0 mi Calm Calm - N/A   Mostly Cloudy
3:55 AM 62.6 °F - 62.6 °F 100% 29.94 in 7.0 mi Calm Calm - N/A   Scattered Clouds
4:15 AM 62.6 °F - 62.6 °F 100% 29.95 in 7.0 mi Calm Calm - N/A   Scattered Clouds
4:35 AM 62.6 °F - 62.6 °F 100% 29.95 in 6.0 mi Calm Calm - N/A   Partly Cloudy
4:55 AM 62.6 °F - 62.6 °F 100% 29.95 in 9.0 mi Calm Calm - N/A   Scattered Clouds
5:15 AM 62.6 °F - 60.8 °F 94% 29.95 in 8.0 mi Calm Calm - N/A   Partly Cloudy
5:35 AM 62.6 °F - 60.8 °F 94% 29.95 in 6.0 mi Calm Calm - N/A   Clear
5:55 AM 60.8 °F - 60.8 °F 100% 29.96 in 5.0 mi Calm Calm - N/A   Clear
6:15 AM 60.8 °F - 60.8 °F 100% 29.96 in 5.0 mi Calm Calm - N/A   Clear
6:35 AM 60.8 °F - 60.8 °F 100% 29.97 in 5.0 mi Calm Calm - N/A   Clear
6:55 AM 60.8 °F - 60.8 °F 100% 29.98 in 6.0 mi Calm Calm - N/A   Clear
7:15 AM 60.8 °F - 60.8 °F 100% 29.98 in 4.0 mi Calm Calm - N/A   Clear
7:35 AM 62.6 °F - 60.8 °F 94% 29.99 in 5.0 mi Calm Calm - N/A   Clear
7:55 AM 62.6 °F - 60.8 °F 94% 29.99 in 9.0 mi Calm Calm - N/A   Mostly Cloudy
8:15 AM 62.6 °F - 62.6 °F 100% 30.00 in 6.0 mi Calm Calm - N/A   Overcast
8:35 AM 64.4 °F - 62.6 °F 94% 30.00 in 8.0 mi Calm Calm - N/A   Overcast
8:55 AM 64.4 °F - 62.6 °F 94% 30.01 in 8.0 mi Calm Calm - N/A   Overcast
9:15 AM 66.2 °F - 62.6 °F 88% 30.01 in 9.0 mi Calm Calm - N/A   Overcast
9:35 AM 66.2 °F - 62.6 °F 88% 30.01 in 9.0 mi Calm Calm - N/A   Overcast
9:55 AM 66.2 °F - 64.4 °F 94% 30.01 in 10.0 mi Calm Calm - N/A   Overcast
10:15 AM 68.0 °F - 64.4 °F 88% 30.01 in 10.0 mi Variable 3.5 mph - N/A   Overcast
10:35 AM 69.8 °F - 64.4 °F 83% 30.01 in 10.0 mi SSW 4.6 mph - N/A   Overcast
10:55 AM 69.8 °F - 64.4 °F 83% 30.01 in 10.0 mi South 5.8 mph - N/A   Mostly Cloudy
11:15 AM 71.6 °F - 64.4 °F 78% 30.01 in 10.0 mi South 3.5 mph - N/A   Partly Cloudy
11:35 AM 73.4 °F - 66.2 °F 78% 30.01 in 10.0 mi SW 6.9 mph - N/A   Clear
11:55 AM 75.2 °F - 66.2 °F 73% 30.00 in 10.0 mi West 4.6 mph - N/A   Clear
12:15 PM 77.0 °F - 62.6 °F 61% 30.00 in 10.0 mi WSW 4.6 mph - N/A   Clear
12:35 PM 78.8 °F - 62.6 °F 57% 30.01 in 10.0 mi WNW 5.8 mph - N/A   Clear
12:55 PM 78.8 °F - 62.6 °F 57% 30.01 in 10.0 mi WSW 6.9 mph - N/A   Clear
1:15 PM 78.8 °F - 60.8 °F 54% 30.01 in 10.0 mi NW 5.8 mph - N/A   Clear
1:35 PM 78.8 °F - 62.6 °F 57% 30.01 in 10.0 mi NW 9.2 mph - N/A   Clear
1:55 PM 78.8 °F - 62.6 °F 57% 30.01 in 10.0 mi WNW 6.9 mph - N/A   Clear
2:15 PM 80.6 °F 81.5 °F 60.8 °F 51% 30.01 in 10.0 mi WNW 8.1 mph - N/A   Clear
2:35 PM 80.6 °F 81.5 °F 60.8 °F 51% 30.00 in 10.0 mi Variable 5.8 mph - N/A   Clear
2:55 PM 80.6 °F 81.8 °F 62.6 °F 54% 30.01 in 10.0 mi Variable 6.9 mph - N/A   Partly Cloudy
3:15 PM 78.8 °F - 60.8 °F 54% 30.01 in 10.0 mi West 6.9 mph - N/A   Clear
3:35 PM 78.8 °F - 60.8 °F 54% 30.01 in 10.0 mi WNW 8.1 mph - N/A   Clear
3:55 PM 78.8 °F - 60.8 °F 54% 30.01 in 10.0 mi WNW 6.9 mph - N/A   Partly Cloudy
4:15 PM 78.8 °F - 60.8 °F 54% 30.01 in 10.0 mi WNW 10.4 mph - N/A   Partly Cloudy
4:35 PM 80.6 °F 81.5 °F 60.8 °F 51% 30.01 in 10.0 mi Variable 5.8 mph - N/A   Partly Cloudy
4:55 PM 78.8 °F - 60.8 °F 54% 30.02 in 10.0 mi NNW 9.2 mph - N/A   Clear
5:15 PM 78.8 °F - 60.8 °F 54% 30.02 in 10.0 mi NW 6.9 mph - N/A   Clear
5:35 PM 78.8 °F - 60.8 °F 54% 30.02 in 10.0 mi NW 6.9 mph - N/A   Clear
5:55 PM 77.0 °F - 59.0 °F 54% 30.03 in 10.0 mi NW 6.9 mph - N/A   Clear
6:15 PM 78.8 °F - 57.2 °F 47% 30.03 in 10.0 mi Variable 3.5 mph - N/A   Clear
6:35 PM 77.0 °F - 57.2 °F 50% 30.04 in 10.0 mi WNW 5.8 mph - N/A   Clear
6:55 PM 77.0 °F - 57.2 °F 50% 30.04 in 10.0 mi NNW 3.5 mph - N/A   Clear
7:15 PM 75.2 °F - 60.8 °F 61% 30.05 in 10.0 mi Calm Calm - N/A   Clear
7:35 PM 73.4 °F - 64.4 °F 73% 30.05 in 10.0 mi Calm Calm - N/A   Clear
7:55 PM 69.8 °F - 64.4 °F 83% 30.06 in 10.0 mi Calm Calm - N/A   Partly Cloudy
8:15 PM 68.0 °F - 62.6 °F 83% 30.06 in 10.0 mi Calm Calm - N/A   Scattered Clouds
8:35 PM 69.8 °F - 60.8 °F 73% 30.06 in 10.0 mi Calm Calm - N/A   Partly Cloudy
8:55 PM 66.2 °F - 62.6 °F 88% 30.06 in 10.0 mi Calm Calm - N/A   Clear
9:15 PM 64.4 °F - 60.8 °F 88% 30.07 in 10.0 mi Calm Calm - N/A   Clear
9:35 PM 64.4 °F - 60.8 °F 88% 30.08 in 10.0 mi Calm Calm - N/A   Mostly Cloudy
9:55 PM 64.4 °F - 60.8 °F 88% 30.09 in 10.0 mi Calm Calm - N/A   Scattered Clouds
10:15 PM 64.4 °F - 60.8 °F 88% 30.09 in 10.0 mi Calm Calm - N/A   Clear
10:35 PM 62.6 °F - 60.8 °F 94% 30.10 in 10.0 mi Calm Calm - N/A   Clear
10:55 PM 62.6 °F - 60.8 °F 94% 30.11 in 10.0 mi Calm Calm - N/A   Clear
11:15 PM 60.8 °F - 60.8 °F 100% 30.11 in 10.0 mi Calm Calm - N/A   Mostly Cloudy
11:35 PM 62.6 °F - 59.0 °F 88% 30.11 in 10.0 mi Calm Calm - N/A   Scattered Clouds
11:55 PM 60.8 °F - 59.0 °F 94% 30.11 in 10.0 mi Calm Calm - N/A   Clear